User: anonymous   Login
Location: Bijele Vode
(45.2833°N, 16.2000°E)
Time: 14:32:52
(UTC+00:00)
Language:

SJ-6B - Orbit

View from above orbital plane
View from above orbital plane
View from above satellite
View from above satellite

Ground track
Ground track

The orbit data is extracted from the following two-line orbital elements,

1 28415U 04035C   20340.09116648  .00000198  00000-0  17119-4 0  9997
2 28415  97.5926  19.6023 0052665 129.5149 231.0752 15.06968409889335
Epoch (UTC): 05 December 2020 02:11:16
Eccentricity: 0.0052665
inclination: 97.5926°
perigee height: 509 km
apogee height: 582 km
right ascension of ascending node: 19.6023°
argument of perigee: 129.5149°
revolutions per day: 15.06968409
mean anomaly at epoch: 231.0752°
orbit number at epoch: 88933

The dashed part of the orbit path shows where the satellite is in the earth's shadow,  

DLR